• In Portugal
  • List of Countries
  • For 7 days
  • Water Temperature
  • Satellite Maps
  • Weather Map
  • Weather Widgets
  • user-avatar
    Login

    Hourly Weather Ndjbele

    Today, 18 February, Sunday

    Time Temperature Precipitation Wind Pressure Humidity
    00:00 +23°C° 0 mm 1 mps 714 mmHg 70%
    01:00 +22°C° 0 mm 1 mps 714 mmHg 78%
    02:00 +21°C° 0 mm 1 mps 714 mmHg 87%
    03:00 +19°C° 0 mm 0 mps 714 mmHg 90%
    04:00 +19°C° 0 mm 0 mps 714 mmHg 92%
    05:00 +20°C° 0 mm 0 mps 714 mmHg 94%
    06:00 +22°C° 0 mm 1 mps 715 mmHg 90%
    07:00 +23°C° 0 mm 1 mps 715 mmHg 86%
    08:00 +24°C° 0 mm 1 mps 715 mmHg 83%
    09:00 +26°C° 0 mm 1 mps 715 mmHg 74%
    10:00 +28°C° 0 mm 1 mps 715 mmHg 66%
    11:00 +29°C° 0 mm 1 mps 715 mmHg 58%
    12:00 +31°C° 0 mm 1 mps 715 mmHg 49%
    13:00 +35°C° 0 mm 2 mps 714 mmHg 41%
    14:00 +37°C° 0 mm 2 mps 713 mmHg 32%
    15:00 +35°C° 0 mm 1 mps 713 mmHg 33%
    16:00 +34°C° 0 mm 1 mps 713 mmHg 34%
    17:00 +34°C° 0 mm 1 mps 713 mmHg 34%
    18:00 +32°C° 0 mm 1 mps 713 mmHg 42%
    19:00 +29°C° 0 mm 1 mps 713 mmHg 50%
    20:00 +27°C° 0 mm 1 mps 713 mmHg 58%
    21:00 +26°C° 0 mm 1 mps 714 mmHg 65%
    22:00 +26°C° 0 mm 1 mps 714 mmHg 72%
    23:00 +25°C° 0 mm 1 mps 714 mmHg 80%

    Tomorrow, 19 February, Monday

    Time Temperature Precipitation Wind Pressure Humidity
    00:00 +24°C° 0 mm 1 mps 714 mmHg 84%
    01:00 +24°C° 0 mm 1 mps 714 mmHg 87%
    02:00 +24°C° 0 mm 1 mps 713 mmHg 91%
    03:00 +24°C° 0 mm 1 mps 714 mmHg 91%
    04:00 +24°C° 0 mm 1 mps 714 mmHg 91%
    05:00 +24°C° 0 mm 1 mps 714 mmHg 91%
    06:00 +24°C° 0.1 mm 1 mps 715 mmHg 90%
    07:00 +24°C° 0.1 mm 1 mps 715 mmHg 89%
    08:00 +25°C° 0.1 mm 1 mps 716 mmHg 88%
    09:00 +27°C° 0.1 mm 1 mps 716 mmHg 76%
    10:00 +30°C° 0.1 mm 1 mps 716 mmHg 63%
    11:00 +33°C° 0.1 mm 1 mps 716 mmHg 50%
    12:00 +34°C° 0.1 mm 1 mps 715 mmHg 46%
    13:00 +35°C° 0.1 mm 1 mps 714 mmHg 42%
    14:00 +36°C° 0.1 mm 1 mps 713 mmHg 38%
    15:00 +34°C° 0.1 mm 1 mps 713 mmHg 42%
    16:00 +34°C° 0.1 mm 2 mps 713 mmHg 46%
    17:00 +31°C° 0.1 mm 2 mps 713 mmHg 51%
    18:00 +30°C° 0 mm 2 mps 713 mmHg 59%
    19:00 +28°C° 0 mm 2 mps 714 mmHg 68%
    20:00 +26°C° 0 mm 1 mps 714 mmHg 77%
    21:00 +25°C° 0 mm 1 mps 714 mmHg 81%
    22:00 +24°C° 0 mm 1 mps 714 mmHg 86%
    23:00 +24°C° 0 mm 1 mps 714 mmHg 90%

    Day after tomorrow, 20 February, Tuesday

    Time Temperature Precipitation Wind Pressure Humidity
    00:00 +23°C° 0 mm 1 mps 714 mmHg 92%
    01:00 +23°C° 0 mm 1 mps 713 mmHg 94%
    02:00 +23°C° 0 mm 1 mps 713 mmHg 97%
    03:00 +23°C° 0 mm 1 mps 713 mmHg 97%
    04:00 +23°C° 0 mm 1 mps 713 mmHg 97%
    05:00 +22°C° 0 mm 1 mps 714 mmHg 97%
    06:00 +24°C° 0 mm 1 mps 714 mmHg 91%
    07:00 +25°C° 0 mm 1 mps 715 mmHg 84%
    08:00 +26°C° 0 mm 1 mps 716 mmHg 78%
    09:00 +28°C° 0 mm 1 mps 716 mmHg 67%
    10:00 +31°C° 0 mm 1 mps 716 mmHg 55%
    11:00 +34°C° 0 mm 1 mps 716 mmHg 44%
    12:00 +35°C° 0 mm 1 mps 715 mmHg 41%
    13:00 +36°C° 0 mm 1 mps 714 mmHg 37%
    14:00 +37°C° 0 mm 1 mps 713 mmHg 33%
    15:00 +36°C° 0 mm 1 mps 713 mmHg 37%
    16:00 +34°C° 0 mm 1 mps 712 mmHg 40%
    17:00 +32°C° 0 mm 1 mps 712 mmHg 44%
    18:00 +31°C° 0 mm 1 mps 713 mmHg 50%
    19:00 +29°C° 0 mm 1 mps 713 mmHg 56%
    20:00 +28°C° 0 mm 1 mps 714 mmHg 62%
    21:00 +27°C° 0 mm 1 mps 714 mmHg 67%
    22:00 +26°C° 0 mm 1 mps 714 mmHg 73%
    23:00 +25°C° 0 mm 2 mps 714 mmHg 79%

    21 February, Wednesday

    Time Temperature Precipitation Wind Pressure Humidity
    00:00 +25°C° 0 mm 1 mps 714 mmHg 83%
    01:00 +24°C° 0 mm 1 mps 713 mmHg 87%
    02:00 +23°C° 0 mm 1 mps 713 mmHg 91%
    03:00 +23°C° 0.1 mm 1 mps 713 mmHg 91%
    04:00 +23°C° 0.1 mm 1 mps 714 mmHg 91%
    05:00 +22°C° 0.1 mm 1 mps 714 mmHg 92%
    06:00 +24°C° 0 mm 1 mps 714 mmHg 83%
    07:00 +25°C° 0 mm 1 mps 715 mmHg 75%
    08:00 +26°C° 0 mm 1 mps 716 mmHg 67%
    09:00 +29°C° 0 mm 1 mps 716 mmHg 55%
    10:00 +32°C° 0 mm 2 mps 715 mmHg 42%
    11:00 +36°C° 0 mm 2 mps 715 mmHg 29%
    12:00 +37°C° 0 mm 2 mps 714 mmHg 26%
    13:00 +38°C° 0 mm 2 mps 713 mmHg 23%
    14:00 +39°C° 0 mm 1 mps 712 mmHg 20%
    15:00 +37°C° 0 mm 1 mps 712 mmHg 22%
    16:00 +36°C° 0 mm 1 mps 712 mmHg 24%
    17:00 +35°C° 0 mm 1 mps 712 mmHg 26%
    18:00 +33°C° 0 mm 1 mps 712 mmHg 37%
    19:00 +30°C° 0 mm 2 mps 713 mmHg 47%
    20:00 +27°C° 0 mm 2 mps 713 mmHg 58%
    21:00 +26°C° 0 mm 2 mps 713 mmHg 65%
    22:00 +25°C° 0 mm 1 mps 713 mmHg 72%
    23:00 +24°C° 0 mm 1 mps 713 mmHg 79%

    22 February, Thursday

    Time Temperature Precipitation Wind Pressure Humidity
    00:00 +23°C° 0 mm 1 mps 713 mmHg 82%
    01:00 +22°C° 0 mm 1 mps 712 mmHg 85%
    02:00 +22°C° 0 mm 1 mps 712 mmHg 87%
    03:00 +21°C° 0 mm 1 mps 712 mmHg 89%
    04:00 +19°C° 0 mm 0 mps 712 mmHg 91%
    05:00 +18°C° 0 mm 0 mps 713 mmHg 93%
    06:00 +22°C° 0 mm 1 mps 713 mmHg 83%
    07:00 +24°C° 0 mm 1 mps 714 mmHg 72%
    08:00 +26°C° 0 mm 1 mps 714 mmHg 62%
    09:00 +28°C° 0 mm 2 mps 714 mmHg 51%
    10:00 +31°C° 0 mm 2 mps 714 mmHg 39%
    11:00 +35°C° 0 mm 2 mps 714 mmHg 28%
    12:00 +36°C° 0 mm 2 mps 713 mmHg 26%
    13:00 +37°C° 0 mm 2 mps 712 mmHg 24%
    14:00 +38°C° 0 mm 2 mps 711 mmHg 22%
    15:00 +37°C° 0 mm 2 mps 711 mmHg 23%
    16:00 +36°C° 0 mm 2 mps 711 mmHg 25%
    17:00 +36°C° 0 mm 2 mps 711 mmHg 27%
    18:00 +32°C° 0 mm 2 mps 712 mmHg 34%
    19:00 +30°C° 0 mm 2 mps 712 mmHg 42%
    20:00 +28°C° 0 mm 2 mps 713 mmHg 49%
    21:00 +26°C° 0 mm 2 mps 713 mmHg 54%
    22:00 +25°C° 0 mm 2 mps 713 mmHg 60%
    23:00 +24°C° 0 mm 1 mps 713 mmHg 65%

    23 February, Friday

    Time Temperature Precipitation Wind Pressure Humidity
    00:00 +23°C° 0 mm 1 mps 713 mmHg 69%
    01:00 +22°C° 0 mm 1 mps 712 mmHg 73%
    02:00 +21°C° 0 mm 1 mps 712 mmHg 77%
    03:00 +21°C° 0 mm 1 mps 712 mmHg 80%
    04:00 +20°C° 0 mm 1 mps 712 mmHg 83%
    05:00 +18°C° 0 mm 0 mps 712 mmHg 86%
    06:00 +22°C° 0 mm 1 mps 713 mmHg 77%
    07:00 +23°C° 0 mm 1 mps 713 mmHg 67%
    08:00 +25°C° 0 mm 1 mps 714 mmHg 58%
    09:00 +28°C° 0 mm 1 mps 714 mmHg 47%
    10:00 +31°C° 0 mm 2 mps 714 mmHg 36%
    11:00 +34°C° 0 mm 2 mps 714 mmHg 25%
    12:00 +36°C° 0 mm 2 mps 714 mmHg 24%
    13:00 +37°C° 0 mm 2 mps 713 mmHg 22%
    14:00 +38°C° 0 mm 2 mps 712 mmHg 21%
    15:00 +37°C° 0 mm 2 mps 712 mmHg 23%
    16:00 +35°C° 0 mm 1 mps 712 mmHg 24%
    17:00 +34°C° 0 mm 1 mps 712 mmHg 26%
    18:00 +32°C° 0 mm 1 mps 713 mmHg 31%
    19:00 +29°C° 0 mm 1 mps 713 mmHg 36%
    20:00 +27°C° 0 mm 1 mps 713 mmHg 42%
    21:00 +26°C° 0 mm 1 mps 713 mmHg 47%
    22:00 +25°C° 0 mm 1 mps 714 mmHg 52%
    23:00 +24°C° 0 mm 1 mps 714 mmHg 57%
    Show more